Regional Weather Roundup
Issued by NWS

Home | Current Version | Previous Version | Graphics & Text | Print | Product List | Glossary On
Versions: 1 2 3 4 5 6 7 8 9 10 11 12 13 14 15 16 17 18 19 20 21 22 23 24 25 26 27 28
000
ASUS45 KPSR 240810
RWRAZ

ARIZONA HOURLY REGIONAL WEATHER ROUNDUP
NATIONAL WEATHER SERVICE PHOENIX AZ
100 AM MST WED AUG 24 2016

NOTE: FAIR INDICATES FEW OR NO CLOUDS BELOW 12,000 FEET WITH NO
SIGNIFICANT WEATHER AND/OR OBSTRUCTIONS TO VISIBILITY.

AZZ001>003-036-240900-
NORTHWEST ARIZONA

CITY           SKY/WX    TMP DP  RH WIND       PRES   REMARKS
BULLHEAD CITY  PTCLDY    86  54  32 CALM      29.92S
KINGMAN        CLEAR     68  61  78 S5        30.12S
$$

AZZ004>008-015-016-018-240900-
NORTH CENTRAL ARIZONA

CITY           SKY/WX    TMP DP  RH WIND       PRES   REMARKS
GRAND CANYON   CLOUDY    56  52  86 N3        30.33R
PRESCOTT       CLEAR     58  55  90 NW5       30.25R
FLAGSTAFF      PTCLDY    49  47  93 CALM      30.34F
PAYSON         PTCLDY    61  54  77 N6        30.26F
PAGE           CLOUDY    70  54  56 S3        30.18S
$$

AZZ009>014-017-240900-
NORTHEAST ARIZONA

CITY           SKY/WX    TMP DP  RH WIND       PRES   REMARKS
WINSLOW        CLOUDY    62  51  67 NE5       30.22S
SAINT JOHNS    CLEAR     54  52  93 S3        30.24F
WINDOW ROCK    CLOUDY    54  50  86 CALM      30.31S
SHOW LOW       CLEAR     52  46  82 CALM      30.30S
$$

AZZ023-240900-
GREATER PHOENIX AREA

CITY           SKY/WX    TMP DP  RH WIND       PRES   REMARKS
PHOENIX        PTCLDY    81  59  47 SW6       29.93F
BUCKEYE        CLEAR     81  63  54 NW3       29.96F
LUKE AFB       CLEAR     82  64  53 W6        29.94F
DEER VALLEY    PTCLDY    79  61  53 N5        29.96F
SCOTTSDALE     PTCLDY    81  60  48 NW7       29.98F
MESA-GATEWAY   PTCLDY    81  61  50 CALM      29.97F
$$

AZZ027-028-240900-
SOUTHWEST MARICOPA COUNTY AND PINAL COUNTY

CITY           SKY/WX    TMP DP  RH WIND       PRES   REMARKS
CASA GRANDE    PTCLDY    82  54  36 SW3       29.99F
GILA BEND      FAIR      86  53  31 S8        29.93F
$$

AZZ503-504-507>509-240900-
SOUTHEAST ARIZONA

CITY           SKY/WX    TMP DP  RH WIND       PRES   REMARKS
TUCSON         CLEAR     78  52  40 W8        30.09S
DAVIS-MONTHAN  CLEAR     74  53  48 S6        30.07S
NOGALES        CLEAR     65  47  52 N5        30.17F
SIERRA VISTA   CLEAR     70  49  46 W12       30.22S
DOUGLAS        CLEAR     63  49  60 E3        30.17S
SAFFORD        CLEAR     74  48  39 W8        30.07F
$$

AZZ020-021-025-026-031-240900-
SOUTHWEST ARIZONA

CITY           SKY/WX    TMP DP  RH WIND       PRES   REMARKS
YUMA           PTCLDY    87  73  62 S6        29.89S
$$

CAZ031-033-041-043-047-048-061-240900-
SOUTHERN CALIFORNIA

CITY           SKY/WX    TMP DP  RH WIND       PRES   REMARKS
DOWNTOWN L.A.  CLEAR     66  60  81 CALM      30.02S
L.A. AIRPORT   CLEAR     66  57  72 W8        30.02F
SAN DIEGO      MOCLDY    67  63  87 CALM      30.05S
BURBANK        CLEAR     69  58  67 E5        30.02F
ONTARIO        CLEAR     70  56  61 CALM      30.04S
RIVERSIDE      CLEAR     72  56  57 W3        30.04S
PALM SPRINGS   CLEAR     89  45  21 NW10      29.91S
EL CENTRO NAS  CLEAR     84  40  21 NW6       29.89R
IMPERIAL       CLEAR     87  45  23 W8        29.86S
BLYTHE         CLEAR     89  56  32 SE6       29.89R
NEEDLES        CLEAR     88  56  33 E5        29.94R
$$

NVZ020-UTZ003-240900-
SOUTHERN NEVADA-UTAH

CITY           SKY/WX    TMP DP  RH WIND       PRES   REMARKS
LAS VEGAS      CLOUDY    81  56  42 W12       29.99F THUNDER
SALT LAKE CITY CLEAR     68  35  29 NW8       30.09S
$$

NMZ009-TXZ055-240900-
NEW MEXICO-WEST TEXAS

CITY           SKY/WX    TMP DP  RH WIND       PRES   REMARKS
ALBUQUERQUE    PTCLDY    64  51  62 N5        30.23F
EL PASO        CLOUDY    69  64  84 SE3       30.11F
$$


........................KEY........................
SKY/WX - SKY CONDITION/WEATHER
TMP    - TEMPERATURE IN FAHRENHEIT
DP     - DEW POINT IN FAHRENHEIT
RH     - RELATIVE HUMIDITY IN PERCENT
WIND   - DIRECTION AND SPEED IN MILES PER HOUR (MPH)
VRB    - VARIABLE WIND DIRECTION
PRES   - MEAN SEA LEVEL PRESSURE IN INCHES OF MERCURY
         F - FALLING PRESSURE   R - RISING PRESSURE
         S - STEADY PRESSURE
VSB    - VISIBILITY IN MILES
HX     - HEAT INDEX IN FAHRENHEIT
WCI    - WIND CHILL INDEX IN FAHRENHEIT
TC     - TEMPERATURE IN CELSIUS WHICH IS ALSO KNOWN AS
         TEMPERATURE IN CENTIGRADE
AFB    - AIR FORCE BASE
         LUKE AFB IS LUKE AIR FORCE BASE
         DAVIS-MONTHAN IS DAVIS-MONTHAN AIR FORCE BASE
NAS    - NAVAL AIR STATION
         EL CENTRO NAS IS EL CENTRO NAVAL AIR STATION
N/A    - NOT AVAILABLE





USA.gov is the U.S. government's official web portal to all federal, state and local government web resources and services.